Satellite: NOAA-12 Catalog number: 21263 Epoch time: 12333.64236664 Element set: 625 Inclination: 098.7167 deg RA of node: 354.4449 deg Eccentricity: 0.0014753 Arg of perigee: 082.7852 deg Mean anomaly: 277.5004 deg Mean motion: 14.25533878 rev/day Decay rate: 1.03e-06 rev/day^2 Epoch rev: 11998 Checksum: 315
Satellite: MET-3/5 Catalog number: 21655 Epoch time: 12334.15117235 Element set: 559 Inclination: 082.5574 deg RA of node: 035.6375 deg Eccentricity: 0.0012200 Arg of perigee: 268.4411 deg Mean anomaly: 091.5314 deg Mean motion: 13.17042099 rev/day Decay rate: -1.5e-07 rev/day^2 Epoch rev: 2360 Checksum: 263
Satellite: MET-2/21 Catalog number: 22782 Epoch time: 12333.37534072 Element set: 593 Inclination: 082.5477 deg RA of node: 262.2309 deg Eccentricity: 0.0024013 Arg of perigee: 054.2574 deg Mean anomaly: 306.0811 deg Mean motion: 13.83695068 rev/day Decay rate: 9.2e-07 rev/day^2 Epoch rev: 97187 Checksum: 302
Satellite: OKEAN-4 Catalog number: 23317 Epoch time: 12333.55990633 Element set: 67 Inclination: 082.5411 deg RA of node: 237.4915 deg Eccentricity: 0.0021261 Arg of perigee: 163.7248 deg Mean anomaly: 196.4658 deg Mean motion: 14.84138090 rev/day Decay rate: 1.013e-05 rev/day^2 Epoch rev: 97918 Checksum: 305
Satellite: NOAA-14 Catalog number: 23455 Epoch time: 12333.65068384 Element set: 107 Inclination: 098.8196 deg RA of node: 055.0091 deg Eccentricity: 0.0008833 Arg of perigee: 204.7575 deg Mean anomaly: 155.3175 deg Mean motion: 14.13883728 rev/day Decay rate: 3.4e-07 rev/day^2 Epoch rev: 92403 Checksum: 305
Satellite: NOAA-15 Catalog number: 25338 Epoch time: 12333.48738664 Element set: 503 Inclination: 098.7057 deg RA of node: 318.9884 deg Eccentricity: 0.0010651 Arg of perigee: 356.2245 deg Mean anomaly: 003.8845 deg Mean motion: 14.25153260 rev/day Decay rate: 2.75e-06 rev/day^2 Epoch rev: 75625 Checksum: 316
Satellite: RESURS Catalog number: 25394 Epoch time: 12333.50626441 Element set: 243 Inclination: 098.3366 deg RA of node: 313.2374 deg Eccentricity: 0.0002223 Arg of perigee: 101.1065 deg Mean anomaly: 259.0362 deg Mean motion: 14.24311227 rev/day Decay rate: 8.8e-07 rev/day^2 Epoch rev: 74779 Checksum: 267
Satellite: FENGYUN1 Catalog number: 25730 Epoch time: 12333.87591939 Element set: 0749 Inclination: 098.8575 deg RA of node: 290.1288 deg Eccentricity: 0.0020462 Arg of perigee: 253.6775 deg Mean anomaly: 106.2133 deg Mean motion: 14.09892050 rev/day Decay rate: 1.817e-05 rev/day^2 Epoch rev: 69781 Checksum: 332
Satellite: OKEAN-0 Catalog number: 25860 Epoch time: 12333.91304801 Element set: 0806 Inclination: 097.9596 deg RA of node: 293.4163 deg Eccentricity: 0.0002000 Arg of perigee: 072.7350 deg Mean anomaly: 287.4077 deg Mean motion: 14.74411352 rev/day Decay rate: 7.95e-06 rev/day^2 Epoch rev: 71884 Checksum: 298
Satellite: NOAA-16 Catalog number: 26536 Epoch time: 12333.34361569 Element set: 985 Inclination: 099.0736 deg RA of node: 017.8315 deg Eccentricity: 0.0010343 Arg of perigee: 345.8393 deg Mean anomaly: 014.2513 deg Mean motion: 14.12811296 rev/day Decay rate: 1.25e-06 rev/day^2 Epoch rev: 62821 Checksum: 293
Satellite: NOAA-17 Catalog number: 27453 Epoch time: 12333.45744420 Element set: 926 Inclination: 098.3247 deg RA of node: 352.0960 deg Eccentricity: 0.0012356 Arg of perigee: 038.7017 deg Mean anomaly: 321.5049 deg Mean motion: 14.24515560 rev/day Decay rate: 2.54e-06 rev/day^2 Epoch rev: 54214 Checksum: 283
Satellite: NOAA-18 Catalog number: 28654 Epoch time: 12333.49787552 Element set: 409 Inclination: 099.0695 deg RA of node: 293.1449 deg Eccentricity: 0.0015046 Arg of perigee: 054.1754 deg Mean anomaly: 306.0804 deg Mean motion: 14.11739014 rev/day Decay rate: 1.70e-06 rev/day^2 Epoch rev: 38774 Checksum: 317
Satellite: NOAA-19 Catalog number: 33591 Epoch time: 12333.47178437 Element set: 594 Inclination: 098.8810 deg RA of node: 271.3470 deg Eccentricity: 0.0013321 Arg of perigee: 278.2573 deg Mean anomaly: 081.7081 deg Mean motion: 14.11425194 rev/day Decay rate: 2.31e-06 rev/day^2 Epoch rev: 19618 Checksum: 302
/EX SB KEPS @ AMSAT $ORB12334.M Orbital Elements 12334.MISC
HR AMSAT ORBITAL ELEMENTS FOR MANNED AND MISCELLANEOUS SATELLITES FROM WA5QGD FORT WORTH,TX November 29, 2012 BID: ORB12334.M TO ALL RADIO AMATEURS BT
Satellite: HUBBLE Catalog number: 20580 Epoch time: 12333.89321936 Element set: 0130 Inclination: 028.4690 deg RA of node: 145.2839 deg Eccentricity: 0.0002854 Arg of perigee: 016.1162 deg Mean anomaly: 343.9526 deg Mean motion: 15.03090085 rev/day Decay rate: 1.715e-05 rev/day^2 Epoch rev: 03953 Checksum: 274
Satellite: ISS Catalog number: 25544 Epoch time: 12333.60875234 Element set: 732 Inclination: 051.6499 deg RA of node: 024.7441 deg Eccentricity: 0.0015766 Arg of perigee: 340.1845 deg Mean anomaly: 155.9317 deg Mean motion: 15.51837211 rev/day Decay rate: 1.3656e-04 rev/day^2 Epoch rev: 80355 Checksum: 299
Satellite: CO-58 Catalog number: 28895 Epoch time: 12333.61850385 Element set: 0339 Inclination: 097.8892 deg RA of node: 192.4617 deg Eccentricity: 0.0017779 Arg of perigee: 357.3451 deg Mean anomaly: 002.7668 deg Mean motion: 14.60872063 rev/day Decay rate: 7.31e-06 rev/day^2 Epoch rev: 37766 Checksum: 356
Satellite: FALCON Catalog number: 30776 Epoch time: 12334.22338918 Element set: 494 Inclination: 035.4354 deg RA of node: 347.8356 deg Eccentricity: 0.0001630 Arg of perigee: 321.4610 deg Mean anomaly: 038.5981 deg Mean motion: 15.09013153 rev/day Decay rate: 5.512e-05 rev/day^2 Epoch rev: 31518 Checksum: 277
Satellite: MAST Catalog number: 31126 Epoch time: 12333.94137635 Element set: 0621 Inclination: 097.8742 deg RA of node: 335.4238 deg Eccentricity: 0.0093069 Arg of perigee: 317.8122 deg Mean anomaly: 041.5945 deg Mean motion: 14.54366314 rev/day Decay rate: 8.78e-06 rev/day^2 Epoch rev: 29821 Checksum: 307
Satellite: CAPE1 Catalog number: 31130 Epoch time: 12333.49258281 Element set: 0629 Inclination: 097.8865 deg RA of node: 331.3208 deg Eccentricity: 0.0100779 Arg of perigee: 333.4667 deg Mean anomaly: 026.1284 deg Mean motion: 14.53210738 rev/day Decay rate: 1.158e-05 rev/day^2 Epoch rev: 29763 Checksum: 303
Satellite: COMPASS Catalog number: 32787 Epoch time: 12334.16126301 Element set: 476 Inclination: 097.7819 deg RA of node: 031.7288 deg Eccentricity: 0.0013977 Arg of perigee: 239.1753 deg Mean anomaly: 120.8012 deg Mean motion: 14.84730157 rev/day Decay rate: 2.011e-05 rev/day^2 Epoch rev: 24828 Checksum: 294
Satellite: AAUSAT2 Catalog number: 32788 Epoch time: 12334.15949821 Element set: 467 Inclination: 097.7814 deg RA of node: 032.2082 deg Eccentricity: 0.0013439 Arg of perigee: 235.2851 deg Mean anomaly: 124.7048 deg Mean motion: 14.85117310 rev/day Decay rate: 2.189e-05 rev/day^2 Epoch rev: 24831 Checksum: 301
Satellite: DO-64 Catalog number: 32789 Epoch time: 12334.15131076 Element set: 487 Inclination: 097.7944 deg RA of node: 034.9163 deg Eccentricity: 0.0013387 Arg of perigee: 233.5144 deg Mean anomaly: 126.4756 deg Mean motion: 14.87132237 rev/day Decay rate: 4.624e-05 rev/day^2 Epoch rev: 24838 Checksum: 324
Satellite: CO-66 Catalog number: 32791 Epoch time: 12333.81754372 Element set: 0464 Inclination: 097.7804 deg RA of node: 030.9873 deg Eccentricity: 0.0014317 Arg of perigee: 238.8333 deg Mean anomaly: 121.1394 deg Mean motion: 14.84014332 rev/day Decay rate: 2.088e-05 rev/day^2 Epoch rev: 24815 Checksum: 306
Satellite: RS-30 Catalog number: 32953 Epoch time: 12334.04873358 Element set: 365 Inclination: 082.5015 deg RA of node: 192.6249 deg Eccentricity: 0.0018617 Arg of perigee: 311.7776 deg Mean anomaly: 048.1715 deg Mean motion: 12.43029943 rev/day Decay rate: 1.0e-07 rev/day^2 Epoch rev: 20504 Checksum: 285
Satellite: PHARMSAT Catalog number: 35002 Epoch time: 12226.86484473 Element set: 78 Inclination: 040.4341 deg RA of node: 050.6671 deg Eccentricity: 0.0012079 Arg of perigee: 300.9773 deg Mean anomaly: 059.0492 deg Mean motion: 16.39309245 rev/day Decay rate: 7.728342e-02 rev/day^2 Epoch rev: 18355 Checksum: 302
Satellite: METEOR-M Catalog number: 35865 Epoch time: 12334.16628705 Element set: 5 Inclination: 098.6336 deg RA of node: 025.2102 deg Eccentricity: 0.0002003 Arg of perigee: 315.2148 deg Mean anomaly: 044.8863 deg Mean motion: 14.21875814 rev/day Decay rate: 8.0e-08 rev/day^2 Epoch rev: 16604 Checksum: 267
Satellite: RS-38 Catalog number: 35869 Epoch time: 12334.09187715 Element set: 974 Inclination: 098.6284 deg RA of node: 025.1025 deg Eccentricity: 0.0004120 Arg of perigee: 304.5240 deg Mean anomaly: 055.5539 deg Mean motion: 14.22102367 rev/day Decay rate: 8.1e-07 rev/day^2 Epoch rev: 16605 Checksum: 288
Satellite: JUGNU Catalog number: 37839 Epoch time: 12333.46576898 Element set: 0280 Inclination: 019.9569 deg RA of node: 082.9708 deg Eccentricity: 0.0018472 Arg of perigee: 232.1240 deg Mean anomaly: 127.7494 deg Mean motion: 14.12108741 rev/day Decay rate: 6.20e-06 rev/day^2 Epoch rev: 05849 Checksum: 320
Satellite: SRMSAT Catalog number: 37841 Epoch time: 12333.46120265 Element set: 0281 Inclination: 019.9692 deg RA of node: 091.1107 deg Eccentricity: 0.0012148 Arg of perigee: 195.1539 deg Mean anomaly: 164.8582 deg Mean motion: 14.10184001 rev/day Decay rate: 2.64e-06 rev/day^2 Epoch rev: 05841 Checksum: 269
Satellite: RAX-2 Catalog number: 37853 Epoch time: 12333.38712479 Element set: 354 Inclination: 101.7049 deg RA of node: 088.4452 deg Eccentricity: 0.0242215 Arg of perigee: 242.1792 deg Mean anomaly: 115.4664 deg Mean motion: 14.81576906 rev/day Decay rate: 7.951e-05 rev/day^2 Epoch rev: 5869 Checksum: 322
